User: anonymous   Login
Location: Observatoire
(46.1952°N, 5.3391°E)
Time: 15:50:49
(UTC+02:00)
Language:

AO-27 - Orbit

View from above orbital plane
View from above orbital plane
View from above satellite
View from above satellite

Ground track
Ground track

The orbit data is extracted from the following two-line orbital elements,

1 22825U 93061C   24115.11975697  .00000454  00000-0  19187-3 0  9998
2 22825  98.7937 167.3181 0007545 232.0955 127.9545 14.30466219595152
Epoch (UTC): 24 April 2024 02:52:27
Eccentricity: 0.0007545
inclination: 98.7937°
perigee height: 785 km
apogee height: 795 km
right ascension of ascending node: 167.3181°
argument of perigee: 232.0955°
revolutions per day: 14.30466219
mean anomaly at epoch: 127.9545°
orbit number at epoch: 59515

The dashed part of the orbit path shows where the satellite is in the earth's shadow,  

DLR